| time (UTC) | temp F | wind direction | speed knots | gust knots | rain 1hr in | rain 24hr in | rain mn in | humidity % | barometer mb |
| 20260506114024 | 65 | 200 | 3.5 | 10.4 | 0.00 | 0.00 | 0.00 | 74 | 1010.5 |
| 20260506113526 | 65 | 183 | 3.5 | 11.3 | 0.00 | 0.00 | 0.00 | 74 | 1010.6 |
| 20260506113043 | 65 | 194 | 4.3 | 11.3 | 0.00 | 0.00 | 0.00 | 74 | 1010.4 |
| 20260506112526 | 65 | 130 | 3.5 | 11.3 | 0.00 | 0.00 | 0.00 | 75 | 1010.2 |
| 20260506112025 | 64 | 172 | 5.2 | 13.0 | 0.00 | 0.00 | 0.00 | 76 | 1010.4 |
| 20260506111541 | 64 | 150 | 3.5 | 13.0 | 0.00 | 0.00 | 0.00 | 76 | 1010.6 |
| 20260506111025 | 64 | 188 | 5.2 | 13.0 | 0.00 | 0.00 | 0.00 | 77 | 1010.5 |
| 20260506110525 | 64 | 138 | 2.6 | 8.7 | 0.00 | 0.00 | 0.00 | 77 | 1010.5 |
| 20260506110038 | 64 | 202 | 4.3 | 10.4 | 0.00 | 0.00 | 0.00 | 77 | 1010.4 |
| 20260506105522 | 64 | 173 | 4.3 | 10.4 | 0.00 | 0.00 | 0.00 | 78 | 1010.3 |
| 20260506105023 | 63 | 198 | 3.5 | 7.0 | 0.00 | 0.00 | 0.00 | 78 | 1010.3 |
| 20260506104541 | 63 | 180 | 2.6 | 7.8 | 0.00 | 0.00 | 0.00 | 79 | 1010.3 |
| 20260506104022 | 63 | 173 | 2.6 | 9.6 | 0.00 | 0.00 | 0.00 | 79 | 1010.3 |
| 20260506103521 | 63 | 210 | 3.5 | 9.6 | 0.00 | 0.00 | 0.00 | 79 | 1010.3 |
| 20260506103036 | 63 | 210 | 2.6 | 10.4 | 0.00 | 0.00 | 0.00 | 79 | 1010.3 |
| 20260506102522 | 63 | 153 | 3.5 | 10.4 | 0.00 | 0.00 | 0.00 | 79 | 1010.4 |
| 20260506102024 | 63 | 165 | 3.5 | 7.0 | 0.00 | 0.00 | 0.00 | 79 | 1010.4 |
| 20260506101542 | 63 | 166 | 2.6 | 7.0 | 0.00 | 0.00 | 0.00 | 79 | 1010.4 |
| 20260506101023 | 63 | 194 | 2.6 | 7.8 | 0.00 | 0.00 | 0.00 | 79 | 1010.3 |
| 20260506100521 | 63 | 190 | 2.6 | 7.8 | 0.00 | 0.00 | 0.00 | 79 | 1010.3 |
| 20260506100040 | 63 | 164 | 2.6 | 9.6 | 0.00 | 0.00 | 0.00 | 79 | 1010.3 |
| 20260506095522 | 63 | 157 | 3.5 | 9.6 | 0.00 | 0.00 | 0.00 | 79 | 1010.2 |
| 20260506095021 | 63 | 202 | 3.5 | 7.8 | 0.00 | 0.00 | 0.00 | 79 | 1010.2 |
| 20260506094544 | 63 | 163 | 2.6 | 8.7 | 0.00 | 0.00 | 0.00 | 79 | 1010.2 |
| 20260506094022 | 63 | 197 | 3.5 | 8.7 | 0.00 | 0.00 | 0.00 | 79 | 1010.2 |
| 20260506093523 | 63 | 167 | 2.6 | 7.0 | 0.00 | 0.00 | 0.00 | 79 | 1010.2 |
| 20260506093044 | 63 | 181 | 2.6 | 10.4 | 0.00 | 0.00 | 0.00 | 79 | 1010.2 |
| 20260506092521 | 64 | 138 | 2.6 | 10.4 | 0.00 | 0.00 | 0.00 | 78 | 1010.2 |
| 20260506092022 | 64 | 165 | 4.3 | 10.4 | 0.00 | 0.00 | 0.00 | 78 | 1010.2 |
| 20260506091536 | 64 | 199 | 3.5 | 7.8 | 0.00 | 0.00 | 0.00 | 78 | 1010.2 |
| 20260506091024 | 64 | 193 | 3.5 | 10.4 | 0.00 | 0.00 | 0.00 | 78 | 1010.3 |
| 20260506090524 | 64 | 211 | 3.5 | 10.4 | 0.00 | 0.00 | 0.00 | 78 | 1010.3 |
| 20260506090035 | 64 | 211 | 3.5 | 9.6 | 0.00 | 0.00 | 0.00 | 78 | 1010.2 |
| 20260506085521 | 64 | 170 | 3.5 | 9.6 | 0.00 | 0.00 | 0.00 | 78 | 1010.3 |
| 20260506085021 | 64 | 192 | 2.6 | 12.2 | 0.00 | 0.00 | 0.00 | 78 | 1010.3 |
| 20260506084541 | 64 | 188 | 4.3 | 12.2 | 0.00 | 0.00 | 0.00 | 78 | 1010.3 |
| 20260506084021 | 64 | 202 | 3.5 | 9.6 | 0.00 | 0.00 | 0.00 | 78 | 1010.5 |
| 20260506083523 | 64 | 160 | 5.2 | 10.4 | 0.00 | 0.00 | 0.00 | 78 | 1010.3 |
| 20260506083042 | 64 | 159 | 5.2 | 10.4 | 0.00 | 0.00 | 0.00 | 78 | 1010.3 |
| 20260506082522 | 64 | 150 | 2.6 | 8.7 | 0.00 | 0.00 | 0.00 | 77 | 1010.3 |
| 20260506082021 | 64 | 157 | 4.3 | 11.3 | 0.00 | 0.00 | 0.00 | 77 | 1010.4 |
| 20260506081536 | 64 | 205 | 4.3 | 11.3 | 0.00 | 0.00 | 0.00 | 77 | 1010.5 |
| 20260506081021 | 65 | 155 | 5.2 | 11.3 | 0.00 | 0.00 | 0.00 | 77 | 1010.4 |
| 20260506080524 | 65 | 128 | 4.3 | 9.6 | 0.00 | 0.00 | 0.00 | 77 | 1010.4 |
| 20260506073520 | 65 | 136 | 2.6 | 12.2 | 0.00 | 0.00 | 0.00 | 76 | 1010.5 |
| 20260506073035 | 65 | 184 | 4.3 | 12.2 | 0.00 | 0.00 | 0.00 | 76 | 1010.3 |
| 20260506072521 | 65 | 209 | 4.3 | 9.6 | 0.00 | 0.00 | 0.00 | 76 | 1010.4 |
| 20260506072022 | 65 | 123 | 3.5 | 9.6 | 0.00 | 0.00 | 0.00 | 76 | 1010.4 |
| 20260506071547 | 65 | 212 | 3.5 | 7.8 | 0.00 | 0.00 | 0.00 | 76 | 1010.5 |
| 20260506071022 | 65 | 153 | 2.6 | 10.4 | 0.00 | 0.00 | 0.00 | 76 | 1010.6 |
| 20260506070522 | 65 | 192 | 3.5 | 12.2 | 0.00 | 0.00 | 0.00 | 76 | 1010.6 |
| 20260506062021 | 66 | 188 | 3.5 | 7.8 | 0.00 | 0.00 | 0.00 | 73 | 1010.6 |
| 20260506061542 | 66 | 210 | 2.6 | 7.8 | 0.00 | 0.00 | 0.00 | 73 | 1010.7 |
| 20260506061025 | 66 | 171 | 3.5 | 10.4 | 0.00 | 0.00 | 0.00 | 73 | 1010.7 |
| 20260506060521 | 66 | 152 | 2.6 | 10.4 | 0.00 | 0.00 | 0.00 | 73 | 1010.6 |
| 20260506051024 | 67 | 207 | 2.6 | 6.1 | 0.00 | 0.00 | 0.00 | 71 | 1011.2 |
| 20260506050521 | 67 | 198 | 2.6 | 6.1 | 0.00 | 0.00 | 0.00 | 71 | 1011.2 |
| 20260506045021 | 67 | 181 | 0.9 | 9.6 | 0.00 | 0.00 | 0.00 | 70 | 1011.3 |
| 20260506044551 | 67 | 194 | 3.5 | 9.6 | 0.00 | 0.00 | 0.00 | 69 | 1011.2 |
| 20260506044023 | 67 | 169 | 2.6 | 7.0 | 0.00 | 0.00 | 0.00 | 69 | 1011.3 |
| 20260506043525 | 68 | 183 | 1.7 | 7.8 | 0.00 | 0.00 | 0.00 | 68 | 1011.3 |
| 20260506043038 | 68 | 195 | 3.5 | 7.8 | 0.00 | 0.00 | 0.00 | 68 | 1011.2 |
| 20260506042521 | 68 | 168 | 2.6 | 8.7 | 0.00 | 0.00 | 0.00 | 68 | 1011.2 |
| 20260506042021 | 68 | 194 | 2.6 | 8.7 | 0.00 | 0.00 | 0.00 | 68 | 1011.2 |
| 20260506041546 | 68 | 126 | 1.7 | 11.3 | 0.00 | 0.00 | 0.00 | 67 | 1011.2 |
| 20260506041020 | 68 | 180 | 2.6 | 11.3 | 0.00 | 0.00 | 0.00 | 67 | 1011.2 |
| 20260506040523 | 68 | 186 | 2.6 | 7.0 | 0.00 | 0.00 | 0.00 | 67 | 1011.2 |
| 20260506040044 | 68 | 198 | 3.5 | 7.0 | 0.00 | 0.00 | 0.00 | 67 | 1011.1 |
| 20260506035520 | 68 | 163 | 2.6 | 7.0 | 0.00 | 0.00 | 0.00 | 67 | 1011.2 |
| 20260506035022 | 68 | 144 | 3.5 | 7.0 | 0.00 | 0.00 | 0.00 | 66 | 1011.2 |
| 20260506034542 | 68 | 197 | 2.6 | 8.7 | 0.00 | 0.00 | 0.00 | 66 | 1011.1 |
| 20260506034023 | 68 | 155 | 2.6 | 8.7 | 0.00 | 0.00 | 0.00 | 66 | 1011.2 |
| 20260506033520 | 68 | 170 | 3.5 | 9.6 | 0.00 | 0.00 | 0.00 | 66 | 1011.2 |
| 20260506033040 | 68 | 190 | 3.5 | 9.6 | 0.00 | 0.00 | 0.00 | 65 | 1011.2 |
| 20260506032520 | 68 | 132 | 2.6 | 9.6 | 0.00 | 0.00 | 0.00 | 65 | 1011.2 |
| 20260506032020 | 68 | 107 | 2.6 | 7.0 | 0.00 | 0.00 | 0.00 | 65 | 1011.1 |
| 20260506031551 | 68 | 163 | 1.7 | 7.0 | 0.00 | 0.00 | 0.00 | 65 | 1011.1 |
| 20260506031021 | 68 | 201 | 2.6 | 6.1 | 0.00 | 0.00 | 0.00 | 64 | 1011.1 |
| 20260506030520 | 68 | 144 | 3.5 | 7.8 | 0.00 | 0.00 | 0.00 | 64 | 1011.1 |
| 20260506030040 | 68 | 205 | 2.6 | 7.8 | 0.00 | 0.00 | 0.00 | 64 | 1011.1 |
| 20260506025525 | 68 | 250 | 3.5 | 7.8 | 0.00 | 0.00 | 0.00 | 63 | 1011.2 |
| 20260506025025 | 68 | 169 | 1.7 | 6.1 | 0.00 | 0.00 | 0.00 | 63 | 1011.1 |
| 20260506024545 | 69 | 162 | 2.6 | 7.0 | 0.00 | 0.00 | 0.00 | 62 | 1011.2 |
| 20260506024025 | 69 | 213 | 1.7 | 7.8 | 0.00 | 0.00 | 0.00 | 62 | 1011.1 |
| 20260506023525 | 69 | 204 | 3.5 | 7.8 | 0.00 | 0.00 | 0.00 | 62 | 1011.1 |
| 20260506023039 | 69 | 207 | 3.5 | 11.3 | 0.00 | 0.00 | 0.00 | 61 | 1011.2 |
| 20260506022525 | 69 | 205 | 3.5 | 11.3 | 0.00 | 0.00 | 0.00 | 61 | 1011.1 |
| 20260506022025 | 69 | 158 | 4.3 | 11.3 | 0.00 | 0.00 | 0.00 | 60 | 1011.2 |
| 20260506021540 | 70 | 175 | 3.5 | 10.4 | 0.00 | 0.00 | 0.00 | 60 | 1011.1 |
| 20260506021025 | 70 | 223 | 3.5 | 9.6 | 0.00 | 0.00 | 0.00 | 60 | 1011.2 |
| 20260506020528 | 70 | 188 | 4.3 | 9.6 | 0.00 | 0.00 | 0.00 | 60 | 1011.2 |
| 20260506020037 | 70 | 200 | 2.6 | 7.8 | 0.00 | 0.00 | 0.00 | 59 | 1011.2 |
| 20260506015526 | 70 | 169 | 1.7 | 7.0 | 0.00 | 0.00 | 0.00 | 59 | 1011.2 |
| 20260506015026 | 70 | 136 | 3.5 | 7.8 | 0.00 | 0.00 | 0.00 | 59 | 1011.1 |
| 20260506014541 | 70 | 175 | 2.6 | 7.8 | 0.00 | 0.00 | 0.00 | 58 | 1011.0 |
| 20260506014024 | 71 | 190 | 2.6 | 8.7 | 0.00 | 0.00 | 0.00 | 58 | 1011.1 |
| 20260506013525 | 71 | 134 | 3.5 | 8.7 | 0.00 | 0.00 | 0.00 | 58 | 1010.8 |
| 20260506013046 | 71 | 147 | 2.6 | 10.4 | 0.00 | 0.00 | 0.00 | 58 | 1010.9 |
| 20260506012526 | 71 | 204 | 3.5 | 10.4 | 0.00 | 0.00 | 0.00 | 58 | 1010.9 |
| 20260506012027 | 71 | 210 | 3.5 | 10.4 | 0.00 | 0.00 | 0.00 | 57 | 1010.9 |
| 20260506011540 | 71 | 223 | 3.5 | 9.6 | 0.00 | 0.00 | 0.00 | 57 | 1010.9 |
| 20260506011027 | 72 | 189 | 4.3 | 11.3 | 0.00 | 0.00 | 0.00 | 57 | 1010.7 |
| 20260506010526 | 72 | 169 | 3.5 | 11.3 | 0.00 | 0.00 | 0.00 | 57 | 1010.8 |
| 20260506010039 | 72 | 135 | 2.6 | 8.7 | 0.00 | 0.00 | 0.00 | 56 | 1010.7 |
| 20260506005526 | 72 | 196 | 3.5 | 9.6 | 0.00 | 0.00 | 0.00 | 56 | 1010.6 |
| 20260506005027 | 72 | 163 | 4.3 | 9.6 | 0.00 | 0.00 | 0.00 | 55 | 1010.5 |
| 20260506004610 | 73 | 163 | 4.3 | 9.6 | 0.00 | 0.00 | 0.00 | 54 | 1010.4 |
| 20260506004024 | 73 | 172 | 3.5 | 9.6 | 0.00 | 0.00 | 0.00 | 53 | 1010.4 |
| 20260506003525 | 73 | 166 | 4.3 | 9.6 | 0.00 | 0.00 | 0.00 | 52 | 1010.2 |
| 20260506003042 | 73 | 188 | 3.5 | 8.7 | 0.00 | 0.00 | 0.00 | 52 | 1010.3 |
| 20260506002525 | 74 | 207 | 3.5 | 12.2 | 0.00 | 0.00 | 0.00 | 51 | 1010.1 |
| 20260506002025 | 74 | 173 | 3.5 | 12.2 | 0.00 | 0.00 | 0.00 | 50 | 1010.1 |
| 20260506001544 | 74 | 192 | 5.2 | 12.2 | 0.00 | 0.00 | 0.00 | 49 | 1010.1 |
| 20260506001025 | 75 | 198 | 4.3 | 10.4 | 0.00 | 0.00 | 0.00 | 47 | 1010.0 |
| 20260506000526 | 75 | 137 | 4.3 | 10.4 | 0.00 | 0.00 | 0.00 | 46 | 1010.0 |
| 20260506000045 | 76 | 184 | 5.2 | 10.4 | 0.00 | 0.00 | 0.00 | 45 | 1010.0 |
| 20260505235526 | 76 | 153 | 3.5 | 10.4 | 0.00 | 0.00 | 0.00 | 44 | 1009.8 |
| 20260505235027 | 76 | 140 | 5.2 | 10.4 | 0.00 | 0.00 | 0.00 | 43 | 1009.8 |
| 20260505234606 | 77 | 150 | 3.5 | 8.7 | 0.00 | 0.00 | 0.00 | 43 | 1009.8 |
| 20260505234025 | 77 | 180 | 3.5 | 10.4 | 0.00 | 0.00 | 0.00 | 42 | 1009.7 |
| 20260505233521 | 77 | 182 | 2.6 | 10.4 | 0.00 | 0.00 | 0.00 | 43 | 1009.5 |
| 20260505233041 | 77 | 166 | 3.5 | 10.4 | 0.00 | 0.00 | 0.00 | 42 | 1009.6 |
| 20260505232526 | 78 | 186 | 2.6 | 10.4 | 0.00 | 0.00 | 0.00 | 42 | 1009.5 |
| 20260505232026 | 78 | 209 | 4.3 | 14.8 | 0.00 | 0.00 | 0.00 | 42 | 1009.5 |
| 20260505231546 | 78 | 158 | 5.2 | 14.8 | 0.00 | 0.00 | 0.00 | 41 | 1009.5 |
| 20260505231025 | 78 | 173 | 5.2 | 13.0 | 0.00 | 0.00 | 0.00 | 41 | 1009.3 |
| 20260505230525 | 78 | 182 | 6.1 | 13.0 | 0.00 | 0.00 | 0.00 | 41 | 1009.2 |
| 20260505230047 | 79 | 148 | 2.6 | 9.6 | 0.00 | 0.00 | 0.00 | 41 | 1009.2 |
| 20260505225527 | 79 | 192 | 5.2 | 10.4 | 0.00 | 0.00 | 0.00 | 40 | 1009.3 |
| 20260505225024 | 79 | 255 | 2.6 | 15.6 | 0.00 | 0.00 | 0.00 | 40 | 1009.1 |
| 20260505224543 | 80 | 195 | 5.2 | 15.6 | 0.00 | 0.00 | 0.00 | 39 | 1009.1 |
| 20260505224025 | 80 | 189 | 4.3 | 14.8 | 0.00 | 0.00 | 0.00 | 38 | 1009.2 |
| 20260505223525 | 80 | 81 | 3.5 | 11.3 | 0.00 | 0.00 | 0.00 | 38 | 1009.0 |
| 20260505223051 | 80 | 170 | 4.3 | 15.6 | 0.00 | 0.00 | 0.00 | 38 | 1008.9 |
| 20260505222525 | 80 | 178 | 3.5 | 15.6 | 0.00 | 0.00 | 0.00 | 37 | 1009.0 |
| 20260505222023 | 80 | 186 | 3.5 | 10.4 | 0.00 | 0.00 | 0.00 | 37 | 1009.0 |
| 20260505221539 | 81 | 205 | 4.3 | 17.4 | 0.00 | 0.00 | 0.00 | 36 | 1009.0 |
| 20260505221021 | 81 | 215 | 4.3 | 17.4 | 0.00 | 0.00 | 0.00 | 35 | 1008.8 |
| 20260505220525 | 81 | 200 | 5.2 | 13.0 | 0.00 | 0.00 | 0.00 | 33 | 1008.8 |
| 20260505220050 | 81 | 185 | 4.3 | 13.0 | 0.00 | 0.00 | 0.00 | 33 | 1008.7 |
| 20260505215526 | 81 | 213 | 4.3 | 13.0 | 0.00 | 0.00 | 0.00 | 32 | 1008.8 |
| 20260505215025 | 81 | 244 | 4.3 | 16.5 | 0.00 | 0.00 | 0.00 | 33 | 1008.9 |
| 20260505214547 | 81 | 173 | 5.2 | 16.5 | 0.00 | 0.00 | 0.00 | 32 | 1008.8 |
| 20260505214026 | 81 | 226 | 5.2 | 16.5 | 0.00 | 0.00 | 0.00 | 32 | 1008.7 |
| 20260505213525 | 81 | 187 | 3.5 | 13.9 | 0.00 | 0.00 | 0.00 | 31 | 1008.8 |
| 20260505213040 | 82 | 209 | 6.1 | 13.9 | 0.00 | 0.00 | 0.00 | 31 | 1008.8 |
| 20260505212525 | 82 | 233 | 4.3 | 15.6 | 0.00 | 0.00 | 0.00 | 31 | 1008.7 |
| 20260505212023 | 82 | 245 | 6.1 | 15.6 | 0.00 | 0.00 | 0.00 | 30 | 1008.7 |
| 20260505211535 | 82 | 188 | 7.0 | 15.6 | 0.00 | 0.00 | 0.00 | 33 | 1008.6 |
| 20260505211023 | 82 | 156 | 7.8 | 15.6 | 0.00 | 0.00 | 0.00 | 36 | 1008.6 |
| 20260505210521 | 82 | 151 | 6.1 | 13.0 | 0.00 | 0.00 | 0.00 | 36 | 1008.5 |
| 20260505210043 | 82 | 207 | 4.3 | 12.2 | 0.00 | 0.00 | 0.00 | 36 | 1008.6 |
| 20260505205526 | 82 | 163 | 7.0 | 17.4 | 0.00 | 0.00 | 0.00 | 37 | 1008.3 |
| 20260505205026 | 82 | 229 | 5.2 | 18.2 | 0.00 | 0.00 | 0.00 | 37 | 1008.5 |
| 20260505204542 | 82 | 161 | 6.1 | 18.2 | 0.00 | 0.00 | 0.00 | 37 | 1008.3 |
| 20260505204025 | 82 | 190 | 8.7 | 16.5 | 0.00 | 0.00 | 0.00 | 36 | 1008.4 |
| 20260505203522 | 83 | 236 | 4.3 | 13.0 | 0.00 | 0.00 | 0.00 | 38 | 1008.4 |
| 20260505203039 | 82 | 235 | 4.3 | 16.5 | 0.00 | 0.00 | 0.00 | 38 | 1008.5 |
| 20260505202525 | 82 | 122 | 6.1 | 17.4 | 0.00 | 0.00 | 0.00 | 38 | 1008.5 |
| 20260505202024 | 82 | 184 | 8.7 | 17.4 | 0.00 | 0.00 | 0.00 | 37 | 1008.5 |
| 20260505201535 | 82 | 213 | 7.0 | 14.8 | 0.00 | 0.00 | 0.00 | 36 | 1008.5 |
| 20260505201022 | 83 | 139 | 7.0 | 15.6 | 0.00 | 0.00 | 0.00 | 37 | 1008.5 |
| 20260505200525 | 83 | 146 | 4.3 | 15.6 | 0.00 | 0.00 | 0.00 | 37 | 1008.6 |
| 20260505200037 | 83 | 212 | 6.1 | 14.8 | 0.00 | 0.00 | 0.00 | 35 | 1008.6 |
| 20260505195524 | 83 | 230 | 5.2 | 14.8 | 0.00 | 0.00 | 0.00 | 37 | 1008.6 |
| 20260505195024 | 83 | 205 | 5.2 | 13.0 | 0.00 | 0.00 | 0.00 | 37 | 1008.7 |
| 20260505194542 | 82 | 160 | 4.3 | 13.0 | 0.00 | 0.00 | 0.00 | 38 | 1008.8 |
| 20260505194026 | 83 | 188 | 7.0 | 13.9 | 0.00 | 0.00 | 0.00 | 37 | 1008.9 |
| 20260505193521 | 83 | 187 | 4.3 | 14.8 | 0.00 | 0.00 | 0.00 | 36 | 1008.9 |
| 20260505193042 | 83 | 146 | 7.8 | 14.8 | 0.00 | 0.00 | 0.00 | 36 | 1008.9 |
| 20260505192525 | 83 | 149 | 3.5 | 17.4 | 0.00 | 0.00 | 0.00 | 37 | 1009.0 |
| 20260505192025 | 83 | 129 | 5.2 | 18.2 | 0.00 | 0.00 | 0.00 | 37 | 1008.9 |
| 20260505191540 | 83 | 171 | 5.2 | 20.0 | 0.00 | 0.00 | 0.00 | 36 | 1009.0 |
| 20260505191025 | 83 | 184 | 7.0 | 20.0 | 0.00 | 0.00 | 0.00 | 37 | 1009.2 |
| 20260505190528 | 83 | 173 | 6.1 | 13.9 | 0.00 | 0.00 | 0.00 | 37 | 1009.1 |
| 20260505190046 | 83 | 158 | 6.1 | 12.2 | 0.00 | 0.00 | 0.00 | 36 | 1009.1 |
| 20260505185522 | 83 | 181 | 5.2 | 12.2 | 0.00 | 0.00 | 0.00 | 39 | 1009.2 |
| 20260505185022 | 83 | 213 | 3.5 | 13.0 | 0.00 | 0.00 | 0.00 | 38 | 1009.4 |
| 20260505184535 | 83 | 205 | 7.0 | 14.8 | 0.00 | 0.00 | 0.00 | 37 | 1009.5 |
| 20260505184021 | 83 | 234 | 3.5 | 14.8 | 0.00 | 0.00 | 0.00 | 40 | 1009.4 |
| 20260505183522 | 83 | 205 | 7.0 | 14.8 | 0.00 | 0.00 | 0.00 | 38 | 1009.6 |
| 20260505183048 | 82 | 252 | 3.5 | 12.2 | 0.00 | 0.00 | 0.00 | 38 | 1009.6 |
| 20260505182522 | 82 | 154 | 4.3 | 13.9 | 0.00 | 0.00 | 0.00 | 40 | 1009.8 |
| 20260505182022 | 83 | 167 | 4.3 | 13.9 | 0.00 | 0.00 | 0.00 | 40 | 1009.8 |
| 20260505181544 | 83 | 188 | 6.1 | 13.0 | 0.00 | 0.00 | 0.00 | 37 | 1009.8 |
| 20260505181023 | 83 | 236 | 3.5 | 9.6 | 0.00 | 0.00 | 0.00 | 39 | 1009.9 |
| 20260505180525 | 82 | 360 | 2.6 | 9.6 | 0.00 | 0.00 | 0.00 | 42 | 1009.9 |
| 20260505180041 | 82 | 220 | 3.5 | 9.6 | 0.00 | 0.00 | 0.00 | 40 | 1010.0 |
| 20260505175522 | 82 | 198 | 2.6 | 9.6 | 0.00 | 0.00 | 0.00 | 43 | 1010.2 |
| 20260505175025 | 82 | 163 | 5.2 | 12.2 | 0.00 | 0.00 | 0.00 | 41 | 1010.2 |
| 20260505174536 | 81 | 213 | 5.2 | 13.9 | 0.00 | 0.00 | 0.00 | 41 | 1010.2 |
| 20260505174025 | 82 | 189 | 4.3 | 13.9 | 0.00 | 0.00 | 0.00 | 41 | 1010.3 |
| 20260505173523 | 82 | 0 | 3.5 | 9.6 | 0.00 | 0.00 | 0.00 | 41 | 1010.3 |
| 20260505173046 | 81 | 180 | 3.5 | 9.6 | 0.00 | 0.00 | 0.00 | 41 | 1010.4 |
| 20260505172524 | 81 | 182 | 4.3 | 9.6 | 0.00 | 0.00 | 0.00 | 44 | 1010.4 |
| 20260505172021 | 81 | 231 | 2.6 | 7.0 | 0.00 | 0.00 | 0.00 | 46 | 1010.4 |
| 20260505171543 | 81 | 277 | 2.6 | 7.8 | 0.00 | 0.00 | 0.00 | 43 | 1010.4 |
| 20260505171026 | 81 | 282 | 1.7 | 9.6 | 0.00 | 0.00 | 0.00 | 44 | 1010.5 |
| 20260505170521 | 81 | 167 | 2.6 | 10.4 | 0.00 | 0.00 | 0.00 | 42 | 1010.6 |
| 20260505170042 | 81 | 209 | 2.6 | 10.4 | 0.00 | 0.00 | 0.00 | 44 | 1010.5 |
| 20260505165525 | 81 | 126 | 1.7 | 10.4 | 0.00 | 0.00 | 0.00 | 45 | 1010.6 |
| 20260505165023 | 80 | 192 | 4.3 | 10.4 | 0.00 | 0.00 | 0.00 | 43 | 1010.5 |
| 20260505164538 | 79 | 5 | 4.3 | 13.0 | 0.00 | 0.00 | 0.00 | 44 | 1010.6 |
| 20260505164025 | 79 | 175 | 1.7 | 13.0 | 0.00 | 0.00 | 0.00 | 47 | 1010.7 |
| 20260505163521 | 79 | 97 | 4.3 | 10.4 | 0.00 | 0.00 | 0.00 | 46 | 1010.7 |
| 20260505163036 | 79 | 198 | 4.3 | 8.7 | 0.00 | 0.00 | 0.00 | 46 | 1010.7 |
| 20260505162525 | 79 | 139 | 2.6 | 8.7 | 0.00 | 0.00 | 0.00 | 46 | 1010.9 |
| 20260505162025 | 79 | 170 | 3.5 | 10.4 | 0.00 | 0.00 | 0.00 | 44 | 1010.8 |
| 20260505161544 | 79 | 161 | 2.6 | 10.4 | 0.00 | 0.00 | 0.00 | 47 | 1010.9 |
| 20260505161026 | 79 | 178 | 2.6 | 9.6 | 0.00 | 0.00 | 0.00 | 48 | 1010.9 |
| 20260505160525 | 78 | 223 | 2.6 | 10.4 | 0.00 | 0.00 | 0.00 | 50 | 1011.1 |
| 20260505153040 | 76 | 236 | 1.7 | 7.8 | 0.00 | 0.00 | 0.00 | 50 | 1011.5 |
| 20260505152524 | 76 | 148 | 3.5 | 6.1 | 0.00 | 0.00 | 0.00 | 49 | 1011.4 |
| 20260505152026 | 77 | 225 | 2.6 | 7.8 | 0.00 | 0.00 | 0.00 | 51 | 1011.6 |
| 20260505151546 | 76 | 209 | 2.6 | 8.7 | 0.00 | 0.00 | 0.00 | 52 | 1011.5 |
| 20260505151022 | 75 | 194 | 1.7 | 8.7 | 0.00 | 0.00 | 0.00 | 51 | 1011.4 |
| 20260505150521 | 75 | 192 | 1.7 | 9.6 | 0.00 | 0.00 | 0.00 | 52 | 1011.4 |
| 20260505140522 | 71 | 203 | 3.5 | 8.7 | 0.00 | 0.00 | 0.00 | 56 | 1012.1 |
| 20260505125024 | 67 | 192 | 3.5 | 9.6 | 0.00 | 0.00 | 0.00 | 62 | 1011.9 |
| 20260505124548 | 66 | 176 | 3.5 | 9.6 | 0.00 | 0.00 | 0.00 | 63 | 1011.9 |
| 20260505124024 | 66 | 154 | 0.9 | 10.4 | 0.00 | 0.00 | 0.00 | 65 | 1011.9 |
| 20260505123527 | 65 | 175 | 4.3 | 10.4 | 0.00 | 0.00 | 0.00 | 66 | 1012.0 |
| 20260505123042 | 63 | 140 | 1.7 | 6.1 | 0.00 | 0.00 | 0.00 | 72 | 1011.8 |
| 20260505122525 | 62 | 187 | 1.7 | 6.1 | 0.00 | 0.00 | 0.00 | 74 | 1011.9 |
| 20260505122026 | 61 | 161 | 2.6 | 6.1 | 0.00 | 0.00 | 0.00 | 78 | 1011.9 |
| 20260505121542 | 60 | 141 | 0.9 | 4.3 | 0.00 | 0.00 | 0.00 | 81 | 1012.0 |
| 20260505121025 | 59 | 148 | 1.7 | 4.3 | 0.00 | 0.00 | 0.00 | 84 | 1012.0 |
| 20260505120524 | 58 | 172 | 0.0 | 2.6 | 0.00 | 0.00 | 0.00 | 86 | 1011.8 |
| 20260505120047 | 58 | 189 | 0.0 | 2.6 | 0.00 | 0.00 | 0.00 | 86 | 1011.8 |
| 20260505115524 | 57 | 0 | 0.0 | 0.9 | 0.00 | 0.00 | 0.00 | 87 | 1011.7 |
| 20260505115026 | 57 | 0 | 0.0 | 0.9 | 0.00 | 0.00 | 0.00 | 87 | 1011.8 |
| 20260505114546 | 56 | 184 | 0.0 | 0.9 | 0.00 | 0.00 | 0.00 | 87 | 1011.8 |